Index of /20260429/WXO-DD/model_caps/3km/00/044
Name Last modified Size Description
Parent Directory -
20260429T00Z_MSC_CAPS_AbsoluteVorticity_IsbL-0250_RLatLon0.03_PT044H.grib2 2026-04-29 06:19 1.0M
20260429T00Z_MSC_CAPS_AbsoluteVorticity_IsbL-0500_RLatLon0.03_PT044H.grib2 2026-04-29 06:19 1.1M
20260429T00Z_MSC_CAPS_AbsoluteVorticity_IsbL-0700_RLatLon0.03_PT044H.grib2 2026-04-29 06:19 1.2M
20260429T00Z_MSC_CAPS_AbsoluteVorticity_IsbL-0850_RLatLon0.03_PT044H.grib2 2026-04-29 06:19 1.2M
20260429T00Z_MSC_CAPS_AbsoluteVorticity_IsbL-1000_RLatLon0.03_PT044H.grib2 2026-04-29 06:19 1.3M
20260429T00Z_MSC_CAPS_AirDensity_AGL-120m_RLatLon0.03_PT044H.grib2 2026-04-29 06:19 1.4M
20260429T00Z_MSC_CAPS_AirDensity_AGL-40m_RLatLon0.03_PT044H.grib2 2026-04-29 06:19 1.4M
20260429T00Z_MSC_CAPS_AirDensity_AGL-80m_RLatLon0.03_PT044H.grib2 2026-04-29 06:19 1.4M
20260429T00Z_MSC_CAPS_AirTemp_AGL-120m_RLatLon0.03_PT044H.grib2 2026-04-29 06:19 1.8M
20260429T00Z_MSC_CAPS_AirTemp_AGL-2m_RLatLon0.03_PT044H.grib2 2026-04-29 06:19 1.7M
20260429T00Z_MSC_CAPS_AirTemp_AGL-40m_RLatLon0.03_PT044H.grib2 2026-04-29 06:19 1.5M
20260429T00Z_MSC_CAPS_AirTemp_AGL-80m_RLatLon0.03_PT044H.grib2 2026-04-29 06:19 1.4M
20260429T00Z_MSC_CAPS_AirTemp_IsbL-0050_RLatLon0.03_PT044H.grib2 2026-04-29 06:19 683K
20260429T00Z_MSC_CAPS_AirTemp_IsbL-0100_RLatLon0.03_PT044H.grib2 2026-04-29 06:19 787K
20260429T00Z_MSC_CAPS_AirTemp_IsbL-0150_RLatLon0.03_PT044H.grib2 2026-04-29 06:19 1.0M
20260429T00Z_MSC_CAPS_AirTemp_IsbL-0175_RLatLon0.03_PT044H.grib2 2026-04-29 06:19 762K
20260429T00Z_MSC_CAPS_AirTemp_IsbL-0200_RLatLon0.03_PT044H.grib2 2026-04-29 06:19 775K
20260429T00Z_MSC_CAPS_AirTemp_IsbL-0225_RLatLon0.03_PT044H.grib2 2026-04-29 06:19 776K
20260429T00Z_MSC_CAPS_AirTemp_IsbL-0250_RLatLon0.03_PT044H.grib2 2026-04-29 06:19 769K
20260429T00Z_MSC_CAPS_AirTemp_IsbL-0275_RLatLon0.03_PT044H.grib2 2026-04-29 06:19 1.0M
20260429T00Z_MSC_CAPS_AirTemp_IsbL-0300_RLatLon0.03_PT044H.grib2 2026-04-29 06:19 838K
20260429T00Z_MSC_CAPS_AirTemp_IsbL-0350_RLatLon0.03_PT044H.grib2 2026-04-29 06:19 1.0M
20260429T00Z_MSC_CAPS_AirTemp_IsbL-0400_RLatLon0.03_PT044H.grib2 2026-04-29 06:19 743K
20260429T00Z_MSC_CAPS_AirTemp_IsbL-0450_RLatLon0.03_PT044H.grib2 2026-04-29 06:19 760K
20260429T00Z_MSC_CAPS_AirTemp_IsbL-0500_RLatLon0.03_PT044H.grib2 2026-04-29 06:19 774K
20260429T00Z_MSC_CAPS_AirTemp_IsbL-0550_RLatLon0.03_PT044H.grib2 2026-04-29 06:19 785K
20260429T00Z_MSC_CAPS_AirTemp_IsbL-0600_RLatLon0.03_PT044H.grib2 2026-04-29 06:19 963K
20260429T00Z_MSC_CAPS_AirTemp_IsbL-0650_RLatLon0.03_PT044H.grib2 2026-04-29 06:19 1.0M
20260429T00Z_MSC_CAPS_AirTemp_IsbL-0700_RLatLon0.03_PT044H.grib2 2026-04-29 06:19 1.0M
20260429T00Z_MSC_CAPS_AirTemp_IsbL-0750_RLatLon0.03_PT044H.grib2 2026-04-29 06:19 1.0M
20260429T00Z_MSC_CAPS_AirTemp_IsbL-0800_RLatLon0.03_PT044H.grib2 2026-04-29 06:19 1.0M
20260429T00Z_MSC_CAPS_AirTemp_IsbL-0850_RLatLon0.03_PT044H.grib2 2026-04-29 06:19 1.1M
20260429T00Z_MSC_CAPS_AirTemp_IsbL-0875_RLatLon0.03_PT044H.grib2 2026-04-29 06:19 1.1M
20260429T00Z_MSC_CAPS_AirTemp_IsbL-0900_RLatLon0.03_PT044H.grib2 2026-04-29 06:19 1.0M
20260429T00Z_MSC_CAPS_AirTemp_IsbL-0925_RLatLon0.03_PT044H.grib2 2026-04-29 06:19 1.0M
20260429T00Z_MSC_CAPS_AirTemp_IsbL-0950_RLatLon0.03_PT044H.grib2 2026-04-29 06:19 1.0M
20260429T00Z_MSC_CAPS_AirTemp_IsbL-0970_RLatLon0.03_PT044H.grib2 2026-04-29 06:19 1.1M
20260429T00Z_MSC_CAPS_AirTemp_IsbL-0985_RLatLon0.03_PT044H.grib2 2026-04-29 06:19 1.0M
20260429T00Z_MSC_CAPS_AirTemp_IsbL-1000_RLatLon0.03_PT044H.grib2 2026-04-29 06:19 1.0M
20260429T00Z_MSC_CAPS_AirTemp_IsbL-1015_RLatLon0.03_PT044H.grib2 2026-04-29 06:19 1.1M
20260429T00Z_MSC_CAPS_Albedo_Sfc_RLatLon0.03_PT044H.grib2 2026-04-29 06:19 2.7M
20260429T00Z_MSC_CAPS_CAPE_Sfc_RLatLon0.03_PT044H.grib2 2026-04-29 06:19 168K
20260429T00Z_MSC_CAPS_CloudWater_EAtm_RLatLon0.03_PT044H.grib2 2026-04-29 06:19 1.5M
20260429T00Z_MSC_CAPS_ConvectivePrecip-Accum_Sfc_RLatLon0.03_PT044H.grib2 2026-04-29 06:19 4.7M
20260429T00Z_MSC_CAPS_DewPointDepression_AGL-120m_RLatLon0.03_PT044H.grib2 2026-04-29 06:19 2.1M
20260429T00Z_MSC_CAPS_DewPointDepression_AGL-2m_RLatLon0.03_PT044H.grib2 2026-04-29 06:19 2.2M
20260429T00Z_MSC_CAPS_DewPointDepression_AGL-40m_RLatLon0.03_PT044H.grib2 2026-04-29 06:19 2.2M
20260429T00Z_MSC_CAPS_DewPointDepression_AGL-80m_RLatLon0.03_PT044H.grib2 2026-04-29 06:19 2.1M
20260429T00Z_MSC_CAPS_DewPointDepression_IsbL-0050_RLatLon0.03_PT044H.grib2 2026-04-29 06:19 725
20260429T00Z_MSC_CAPS_DewPointDepression_IsbL-0100_RLatLon0.03_PT044H.grib2 2026-04-29 06:19 169K
20260429T00Z_MSC_CAPS_DewPointDepression_IsbL-0150_RLatLon0.03_PT044H.grib2 2026-04-29 06:19 161K
20260429T00Z_MSC_CAPS_DewPointDepression_IsbL-0175_RLatLon0.03_PT044H.grib2 2026-04-29 06:19 264K
20260429T00Z_MSC_CAPS_DewPointDepression_IsbL-0200_RLatLon0.03_PT044H.grib2 2026-04-29 06:19 454K
20260429T00Z_MSC_CAPS_DewPointDepression_IsbL-0225_RLatLon0.03_PT044H.grib2 2026-04-29 06:19 718K
20260429T00Z_MSC_CAPS_DewPointDepression_IsbL-0250_RLatLon0.03_PT044H.grib2 2026-04-29 06:19 922K
20260429T00Z_MSC_CAPS_DewPointDepression_IsbL-0275_RLatLon0.03_PT044H.grib2 2026-04-29 06:19 1.0M
20260429T00Z_MSC_CAPS_DewPointDepression_IsbL-0300_RLatLon0.03_PT044H.grib2 2026-04-29 06:19 1.1M
20260429T00Z_MSC_CAPS_DewPointDepression_IsbL-0350_RLatLon0.03_PT044H.grib2 2026-04-29 06:19 1.1M
20260429T00Z_MSC_CAPS_DewPointDepression_IsbL-0400_RLatLon0.03_PT044H.grib2 2026-04-29 06:19 1.1M
20260429T00Z_MSC_CAPS_DewPointDepression_IsbL-0450_RLatLon0.03_PT044H.grib2 2026-04-29 06:19 1.2M
20260429T00Z_MSC_CAPS_DewPointDepression_IsbL-0500_RLatLon0.03_PT044H.grib2 2026-04-29 06:19 1.2M
20260429T00Z_MSC_CAPS_DewPointDepression_IsbL-0550_RLatLon0.03_PT044H.grib2 2026-04-29 06:19 1.2M
20260429T00Z_MSC_CAPS_DewPointDepression_IsbL-0600_RLatLon0.03_PT044H.grib2 2026-04-29 06:19 1.3M
20260429T00Z_MSC_CAPS_DewPointDepression_IsbL-0650_RLatLon0.03_PT044H.grib2 2026-04-29 06:19 1.3M
20260429T00Z_MSC_CAPS_DewPointDepression_IsbL-0700_RLatLon0.03_PT044H.grib2 2026-04-29 06:19 1.3M
20260429T00Z_MSC_CAPS_DewPointDepression_IsbL-0750_RLatLon0.03_PT044H.grib2 2026-04-29 06:19 1.3M
20260429T00Z_MSC_CAPS_DewPointDepression_IsbL-0800_RLatLon0.03_PT044H.grib2 2026-04-29 06:19 1.3M
20260429T00Z_MSC_CAPS_DewPointDepression_IsbL-0850_RLatLon0.03_PT044H.grib2 2026-04-29 06:19 1.3M
20260429T00Z_MSC_CAPS_DewPointDepression_IsbL-0875_RLatLon0.03_PT044H.grib2 2026-04-29 06:19 1.4M
20260429T00Z_MSC_CAPS_DewPointDepression_IsbL-0900_RLatLon0.03_PT044H.grib2 2026-04-29 06:19 1.4M
20260429T00Z_MSC_CAPS_DewPointDepression_IsbL-0925_RLatLon0.03_PT044H.grib2 2026-04-29 06:19 1.4M
20260429T00Z_MSC_CAPS_DewPointDepression_IsbL-0950_RLatLon0.03_PT044H.grib2 2026-04-29 06:19 1.4M
20260429T00Z_MSC_CAPS_DewPointDepression_IsbL-0970_RLatLon0.03_PT044H.grib2 2026-04-29 06:19 1.4M
20260429T00Z_MSC_CAPS_DewPointDepression_IsbL-0985_RLatLon0.03_PT044H.grib2 2026-04-29 06:19 1.3M
20260429T00Z_MSC_CAPS_DewPointDepression_IsbL-1000_RLatLon0.03_PT044H.grib2 2026-04-29 06:19 1.3M
20260429T00Z_MSC_CAPS_DewPointDepression_IsbL-1015_RLatLon0.03_PT044H.grib2 2026-04-29 06:19 1.3M
20260429T00Z_MSC_CAPS_DewPoint_AGL-120m_RLatLon0.03_PT044H.grib2 2026-04-29 06:19 3.7M
20260429T00Z_MSC_CAPS_DewPoint_AGL-2m_RLatLon0.03_PT044H.grib2 2026-04-29 06:19 2.1M
20260429T00Z_MSC_CAPS_DewPoint_AGL-40m_RLatLon0.03_PT044H.grib2 2026-04-29 06:19 3.7M
20260429T00Z_MSC_CAPS_DewPoint_AGL-80m_RLatLon0.03_PT044H.grib2 2026-04-29 06:19 3.7M
20260429T00Z_MSC_CAPS_DownwardLongwaveRadiationFlux-Accum_Sfc_RLatLon0.03_PT044H.grib2 2026-04-29 06:19 2.2M
20260429T00Z_MSC_CAPS_DownwardShortwaveRadiationFlux-Accum_NTAtm_RLatLon0.03_PT044H.grib2 2026-04-29 06:19 495K
20260429T00Z_MSC_CAPS_DownwardShortwaveRadiationFlux-Accum_Sfc_RLatLon0.03_PT044H.grib2 2026-04-29 06:19 2.9M
20260429T00Z_MSC_CAPS_FreezingRain-Accum_Sfc_RLatLon0.03_PT044H.grib2 2026-04-29 06:19 1.0M
20260429T00Z_MSC_CAPS_GeopotentialHeight_IsbL-0050_RLatLon0.03_PT044H.grib2 2026-04-29 06:19 637K
20260429T00Z_MSC_CAPS_GeopotentialHeight_IsbL-0100_RLatLon0.03_PT044H.grib2 2026-04-29 06:19 759K
20260429T00Z_MSC_CAPS_GeopotentialHeight_IsbL-0150_RLatLon0.03_PT044H.grib2 2026-04-29 06:19 602K
20260429T00Z_MSC_CAPS_GeopotentialHeight_IsbL-0175_RLatLon0.03_PT044H.grib2 2026-04-29 06:19 726K
20260429T00Z_MSC_CAPS_GeopotentialHeight_IsbL-0200_RLatLon0.03_PT044H.grib2 2026-04-29 06:19 740K
20260429T00Z_MSC_CAPS_GeopotentialHeight_IsbL-0225_RLatLon0.03_PT044H.grib2 2026-04-29 06:19 747K
20260429T00Z_MSC_CAPS_GeopotentialHeight_IsbL-0250_RLatLon0.03_PT044H.grib2 2026-04-29 06:19 762K
20260429T00Z_MSC_CAPS_GeopotentialHeight_IsbL-0275_RLatLon0.03_PT044H.grib2 2026-04-29 06:19 772K
20260429T00Z_MSC_CAPS_GeopotentialHeight_IsbL-0300_RLatLon0.03_PT044H.grib2 2026-04-29 06:19 776K
20260429T00Z_MSC_CAPS_GeopotentialHeight_IsbL-0350_RLatLon0.03_PT044H.grib2 2026-04-29 06:19 776K
20260429T00Z_MSC_CAPS_GeopotentialHeight_IsbL-0400_RLatLon0.03_PT044H.grib2 2026-04-29 06:19 774K
20260429T00Z_MSC_CAPS_GeopotentialHeight_IsbL-0450_RLatLon0.03_PT044H.grib2 2026-04-29 06:19 769K
20260429T00Z_MSC_CAPS_GeopotentialHeight_IsbL-0500_RLatLon0.03_PT044H.grib2 2026-04-29 06:19 763K
20260429T00Z_MSC_CAPS_GeopotentialHeight_IsbL-0550_RLatLon0.03_PT044H.grib2 2026-04-29 06:19 754K
20260429T00Z_MSC_CAPS_GeopotentialHeight_IsbL-0600_RLatLon0.03_PT044H.grib2 2026-04-29 06:19 635K
20260429T00Z_MSC_CAPS_GeopotentialHeight_IsbL-0650_RLatLon0.03_PT044H.grib2 2026-04-29 06:19 634K
20260429T00Z_MSC_CAPS_GeopotentialHeight_IsbL-0700_RLatLon0.03_PT044H.grib2 2026-04-29 06:19 806K
20260429T00Z_MSC_CAPS_GeopotentialHeight_IsbL-0750_RLatLon0.03_PT044H.grib2 2026-04-29 06:19 806K
20260429T00Z_MSC_CAPS_GeopotentialHeight_IsbL-0800_RLatLon0.03_PT044H.grib2 2026-04-29 06:19 810K
20260429T00Z_MSC_CAPS_GeopotentialHeight_IsbL-0850_RLatLon0.03_PT044H.grib2 2026-04-29 06:19 887K
20260429T00Z_MSC_CAPS_GeopotentialHeight_IsbL-0875_RLatLon0.03_PT044H.grib2 2026-04-29 06:19 889K
20260429T00Z_MSC_CAPS_GeopotentialHeight_IsbL-0900_RLatLon0.03_PT044H.grib2 2026-04-29 06:19 895K
20260429T00Z_MSC_CAPS_GeopotentialHeight_IsbL-0925_RLatLon0.03_PT044H.grib2 2026-04-29 06:19 903K
20260429T00Z_MSC_CAPS_GeopotentialHeight_IsbL-0950_RLatLon0.03_PT044H.grib2 2026-04-29 06:19 913K
20260429T00Z_MSC_CAPS_GeopotentialHeight_IsbL-0970_RLatLon0.03_PT044H.grib2 2026-04-29 06:19 924K
20260429T00Z_MSC_CAPS_GeopotentialHeight_IsbL-0985_RLatLon0.03_PT044H.grib2 2026-04-29 06:19 932K
20260429T00Z_MSC_CAPS_GeopotentialHeight_IsbL-1000_RLatLon0.03_PT044H.grib2 2026-04-29 06:19 942K
20260429T00Z_MSC_CAPS_GeopotentialHeight_IsbL-1015_RLatLon0.03_PT044H.grib2 2026-04-29 06:19 956K
20260429T00Z_MSC_CAPS_GeopotentialHeight_Sfc_RLatLon0.03_PT044H.grib2 2026-04-29 06:19 1.0M
20260429T00Z_MSC_CAPS_IcePellets-Accum_Sfc_RLatLon0.03_PT044H.grib2 2026-04-29 06:19 74K
20260429T00Z_MSC_CAPS_LatentHeatNetFlux_Sfc_RLatLon0.03_PT044H.grib2 2026-04-29 06:19 1.9M
20260429T00Z_MSC_CAPS_LiftedIndex-MU-VT_IsbL-0500_RLatLon0.03_PT044H.grib2 2026-04-29 06:19 3.3M
20260429T00Z_MSC_CAPS_MixedLayerThickness_Sfc_RLatLon0.03_PT044H.nc 2026-04-29 06:12 17M
20260429T00Z_MSC_CAPS_NetLongwaveRadiationFlux-Accum_Sfc_RLatLon0.03_PT044H.grib2 2026-04-29 06:19 2.9M
20260429T00Z_MSC_CAPS_NetShortwaveRadiationFlux-Accum_Sfc_RLatLon0.03_PT044H.grib2 2026-04-29 06:19 2.8M
20260429T00Z_MSC_CAPS_PlanetaryBoundaryLayerHeight_Sfc_RLatLon0.03_PT044H.grib2 2026-04-29 06:19 3.0M
20260429T00Z_MSC_CAPS_Precip-Accum_Sfc_RLatLon0.03_PT044H.grib2 2026-04-29 06:19 5.2M
20260429T00Z_MSC_CAPS_PrecipRate_Sfc_RLatLon0.03_PT044H.grib2 2026-04-29 06:19 507K
20260429T00Z_MSC_CAPS_PrecipType-Instant_Sfc_RLatLon0.03_PT044H.grib2 2026-04-29 06:19 2.0M
20260429T00Z_MSC_CAPS_Pressure_MSL_RLatLon0.03_PT044H.grib2 2026-04-29 06:19 752K
20260429T00Z_MSC_CAPS_Pressure_Sfc_RLatLon0.03_PT044H.grib2 2026-04-29 06:19 1.2M
20260429T00Z_MSC_CAPS_RadiativeTemp_Sfc_RLatLon0.03_PT044H.grib2 2026-04-29 06:19 2.1M
20260429T00Z_MSC_CAPS_Rain-Accum_Sfc_RLatLon0.03_PT044H.grib2 2026-04-29 06:19 2.3M
20260429T00Z_MSC_CAPS_RelativeHumidity_AGL-120m_RLatLon0.03_PT044H.grib2 2026-04-29 06:19 2.9M
20260429T00Z_MSC_CAPS_RelativeHumidity_AGL-2m_RLatLon0.03_PT044H.grib2 2026-04-29 06:19 3.0M
20260429T00Z_MSC_CAPS_RelativeHumidity_AGL-40m_RLatLon0.03_PT044H.grib2 2026-04-29 06:19 2.9M
20260429T00Z_MSC_CAPS_RelativeHumidity_AGL-80m_RLatLon0.03_PT044H.grib2 2026-04-29 06:19 2.9M
20260429T00Z_MSC_CAPS_RelativeHumidity_IsbL-0050_RLatLon0.03_PT044H.grib2 2026-04-29 06:19 1.0M
20260429T00Z_MSC_CAPS_RelativeHumidity_IsbL-0100_RLatLon0.03_PT044H.grib2 2026-04-29 06:19 845K
20260429T00Z_MSC_CAPS_RelativeHumidity_IsbL-0150_RLatLon0.03_PT044H.grib2 2026-04-29 06:19 685K
20260429T00Z_MSC_CAPS_RelativeHumidity_IsbL-0175_RLatLon0.03_PT044H.grib2 2026-04-29 06:19 676K
20260429T00Z_MSC_CAPS_RelativeHumidity_IsbL-0200_RLatLon0.03_PT044H.grib2 2026-04-29 06:19 706K
20260429T00Z_MSC_CAPS_RelativeHumidity_IsbL-0225_RLatLon0.03_PT044H.grib2 2026-04-29 06:19 937K
20260429T00Z_MSC_CAPS_RelativeHumidity_IsbL-0250_RLatLon0.03_PT044H.grib2 2026-04-29 06:19 1.1M
20260429T00Z_MSC_CAPS_RelativeHumidity_IsbL-0275_RLatLon0.03_PT044H.grib2 2026-04-29 06:19 1.4M
20260429T00Z_MSC_CAPS_RelativeHumidity_IsbL-0300_RLatLon0.03_PT044H.grib2 2026-04-29 06:19 1.6M
20260429T00Z_MSC_CAPS_RelativeHumidity_IsbL-0350_RLatLon0.03_PT044H.grib2 2026-04-29 06:19 1.8M
20260429T00Z_MSC_CAPS_RelativeHumidity_IsbL-0400_RLatLon0.03_PT044H.grib2 2026-04-29 06:19 1.9M
20260429T00Z_MSC_CAPS_RelativeHumidity_IsbL-0450_RLatLon0.03_PT044H.grib2 2026-04-29 06:19 2.0M
20260429T00Z_MSC_CAPS_RelativeHumidity_IsbL-0500_RLatLon0.03_PT044H.grib2 2026-04-29 06:19 2.0M
20260429T00Z_MSC_CAPS_RelativeHumidity_IsbL-0550_RLatLon0.03_PT044H.grib2 2026-04-29 06:19 2.2M
20260429T00Z_MSC_CAPS_RelativeHumidity_IsbL-0600_RLatLon0.03_PT044H.grib2 2026-04-29 06:19 2.2M
20260429T00Z_MSC_CAPS_RelativeHumidity_IsbL-0650_RLatLon0.03_PT044H.grib2 2026-04-29 06:19 2.3M
20260429T00Z_MSC_CAPS_RelativeHumidity_IsbL-0700_RLatLon0.03_PT044H.grib2 2026-04-29 06:19 2.4M
20260429T00Z_MSC_CAPS_RelativeHumidity_IsbL-0750_RLatLon0.03_PT044H.grib2 2026-04-29 06:19 2.4M
20260429T00Z_MSC_CAPS_RelativeHumidity_IsbL-0800_RLatLon0.03_PT044H.grib2 2026-04-29 06:19 2.4M
20260429T00Z_MSC_CAPS_RelativeHumidity_IsbL-0850_RLatLon0.03_PT044H.grib2 2026-04-29 06:19 2.4M
20260429T00Z_MSC_CAPS_RelativeHumidity_IsbL-0875_RLatLon0.03_PT044H.grib2 2026-04-29 06:19 2.5M
20260429T00Z_MSC_CAPS_RelativeHumidity_IsbL-0900_RLatLon0.03_PT044H.grib2 2026-04-29 06:19 2.6M
20260429T00Z_MSC_CAPS_RelativeHumidity_IsbL-0925_RLatLon0.03_PT044H.grib2 2026-04-29 06:19 2.7M
20260429T00Z_MSC_CAPS_RelativeHumidity_IsbL-0950_RLatLon0.03_PT044H.grib2 2026-04-29 06:19 2.8M
20260429T00Z_MSC_CAPS_RelativeHumidity_IsbL-0970_RLatLon0.03_PT044H.grib2 2026-04-29 06:19 2.8M
20260429T00Z_MSC_CAPS_RelativeHumidity_IsbL-0985_RLatLon0.03_PT044H.grib2 2026-04-29 06:19 2.8M
20260429T00Z_MSC_CAPS_RelativeHumidity_IsbL-1000_RLatLon0.03_PT044H.grib2 2026-04-29 06:19 2.9M
20260429T00Z_MSC_CAPS_RelativeHumidity_IsbL-1015_RLatLon0.03_PT044H.grib2 2026-04-29 06:19 2.9M
20260429T00Z_MSC_CAPS_Runoff-Accum_Sfc_RLatLon0.03_PT044H.grib2 2026-04-29 06:19 268K
20260429T00Z_MSC_CAPS_SeaIceAreaFraction_Sfc_RLatLon0.03_PT044H.nc 2026-04-29 06:12 15M
20260429T00Z_MSC_CAPS_SeaIceCompressiveStrength_Sfc_RLatLon0.03_PT044H.nc 2026-04-29 06:12 15M
20260429T00Z_MSC_CAPS_SeaIceDivergence_Sfc_RLatLon0.03_PT044H.nc 2026-04-29 06:12 15M
20260429T00Z_MSC_CAPS_SeaIceInternalPressure_Sfc_RLatLon0.03_PT044H.nc 2026-04-29 06:12 15M
20260429T00Z_MSC_CAPS_SeaIceShear_Sfc_RLatLon0.03_PT044H.nc 2026-04-29 06:12 14M
20260429T00Z_MSC_CAPS_SeaIceSnowTemp_Sfc_RLatLon0.03_PT044H.nc 2026-04-29 06:12 15M
20260429T00Z_MSC_CAPS_SeaIceSnowVolume_Sfc_RLatLon0.03_PT044H.nc 2026-04-29 06:12 15M
20260429T00Z_MSC_CAPS_SeaIceVelocityX_Sfc_RLatLon0.03_PT044H.nc 2026-04-29 06:12 15M
20260429T00Z_MSC_CAPS_SeaIceVelocityY_Sfc_RLatLon0.03_PT044H.nc 2026-04-29 06:12 15M
20260429T00Z_MSC_CAPS_SeaIceVolume_Sfc_RLatLon0.03_PT044H.nc 2026-04-29 06:12 15M
20260429T00Z_MSC_CAPS_SeaSurfaceHeight_Sfc_RLatLon0.03_PT044H.nc 2026-04-29 06:12 16M
20260429T00Z_MSC_CAPS_SeaWaterSalinity_DBS-0.5m_RLatLon0.03_PT044H.nc 2026-04-29 06:12 16M
20260429T00Z_MSC_CAPS_SeaWaterSalinity_DBS-all_RLatLon0.03_PT044H.nc 2026-04-29 06:12 107M
20260429T00Z_MSC_CAPS_SeaWaterTemp_DBS-0.5m_RLatLon0.03_PT044H.nc 2026-04-29 06:12 14M
20260429T00Z_MSC_CAPS_SeaWaterTemp_DBS-all_RLatLon0.03_PT044H.nc 2026-04-29 06:12 87M
20260429T00Z_MSC_CAPS_SeaWaterVelocityX_DBS-0.5m_RLatLon0.03_PT044H.nc 2026-04-29 06:12 17M
20260429T00Z_MSC_CAPS_SeaWaterVelocityX_DBS-all_RLatLon0.03_PT044H.nc 2026-04-29 06:12 210M
20260429T00Z_MSC_CAPS_SeaWaterVelocityY_DBS-0.5m_RLatLon0.03_PT044H.nc 2026-04-29 06:12 17M
20260429T00Z_MSC_CAPS_SeaWaterVelocityY_DBS-all_RLatLon0.03_PT044H.nc 2026-04-29 06:12 210M
20260429T00Z_MSC_CAPS_SensibleHeatNetFlux_Sfc_RLatLon0.03_PT044H.grib2 2026-04-29 06:19 2.1M
20260429T00Z_MSC_CAPS_ShowalterIndex_IsbL-0500_RLatLon0.03_PT044H.grib2 2026-04-29 06:19 4.3M
20260429T00Z_MSC_CAPS_Snow-Accum_Sfc_RLatLon0.03_PT044H.grib2 2026-04-29 06:19 4.3M
20260429T00Z_MSC_CAPS_SnowDensity_Sfc_RLatLon0.03_PT044H.grib2 2026-04-29 06:19 1.3M
20260429T00Z_MSC_CAPS_SnowDepthWaterEquivalent_Sfc_RLatLon0.03_PT044H.grib2 2026-04-29 06:19 710K
20260429T00Z_MSC_CAPS_SnowDepth_Sfc_RLatLon0.03_PT044H.grib2 2026-04-29 06:19 1.2M
20260429T00Z_MSC_CAPS_SoilTemp_DBS-0to10cm_RLatLon0.03_PT044H.grib2 2026-04-29 06:19 1.7M
20260429T00Z_MSC_CAPS_SoilTemp_Sfc_RLatLon0.03_PT044H.grib2 2026-04-29 06:19 1.9M
20260429T00Z_MSC_CAPS_SoilVolumetricIceContent_Sfc_RLatLon0.03_PT044H.grib2 2026-04-29 06:19 1.5M
20260429T00Z_MSC_CAPS_SoilVolumetricWaterContent_DBS-0to10cm_RLatLon0.03_PT044H.grib2 2026-04-29 06:19 1.2M
20260429T00Z_MSC_CAPS_SoilVolumetricWaterContent_DBS-0to1cm_RLatLon0.03_PT044H.grib2 2026-04-29 06:19 1.7M
20260429T00Z_MSC_CAPS_SpecificHumidity_AGL-120m_RLatLon0.03_PT044H.grib2 2026-04-29 06:19 1.9M
20260429T00Z_MSC_CAPS_SpecificHumidity_AGL-2m_RLatLon0.03_PT044H.grib2 2026-04-29 06:19 2.1M
20260429T00Z_MSC_CAPS_SpecificHumidity_AGL-40m_RLatLon0.03_PT044H.grib2 2026-04-29 06:19 1.9M
20260429T00Z_MSC_CAPS_SpecificHumidity_AGL-80m_RLatLon0.03_PT044H.grib2 2026-04-29 06:19 1.9M
20260429T00Z_MSC_CAPS_SpecificHumidity_IsbL-0050_RLatLon0.03_PT044H.grib2 2026-04-29 06:19 926K
20260429T00Z_MSC_CAPS_SpecificHumidity_IsbL-0100_RLatLon0.03_PT044H.grib2 2026-04-29 06:19 1.0M
20260429T00Z_MSC_CAPS_SpecificHumidity_IsbL-0150_RLatLon0.03_PT044H.grib2 2026-04-29 06:19 912K
20260429T00Z_MSC_CAPS_SpecificHumidity_IsbL-0175_RLatLon0.03_PT044H.grib2 2026-04-29 06:19 1.0M
20260429T00Z_MSC_CAPS_SpecificHumidity_IsbL-0200_RLatLon0.03_PT044H.grib2 2026-04-29 06:19 907K
20260429T00Z_MSC_CAPS_SpecificHumidity_IsbL-0225_RLatLon0.03_PT044H.grib2 2026-04-29 06:19 1.2M
20260429T00Z_MSC_CAPS_SpecificHumidity_IsbL-0250_RLatLon0.03_PT044H.grib2 2026-04-29 06:19 1.0M
20260429T00Z_MSC_CAPS_SpecificHumidity_IsbL-0275_RLatLon0.03_PT044H.grib2 2026-04-29 06:19 1.3M
20260429T00Z_MSC_CAPS_SpecificHumidity_IsbL-0300_RLatLon0.03_PT044H.grib2 2026-04-29 06:19 1.3M
20260429T00Z_MSC_CAPS_SpecificHumidity_IsbL-0350_RLatLon0.03_PT044H.grib2 2026-04-29 06:19 1.3M
20260429T00Z_MSC_CAPS_SpecificHumidity_IsbL-0400_RLatLon0.03_PT044H.grib2 2026-04-29 06:19 1.2M
20260429T00Z_MSC_CAPS_SpecificHumidity_IsbL-0450_RLatLon0.03_PT044H.grib2 2026-04-29 06:19 1.1M
20260429T00Z_MSC_CAPS_SpecificHumidity_IsbL-0500_RLatLon0.03_PT044H.grib2 2026-04-29 06:19 1.3M
20260429T00Z_MSC_CAPS_SpecificHumidity_IsbL-0550_RLatLon0.03_PT044H.grib2 2026-04-29 06:19 1.2M
20260429T00Z_MSC_CAPS_SpecificHumidity_IsbL-0600_RLatLon0.03_PT044H.grib2 2026-04-29 06:19 1.4M
20260429T00Z_MSC_CAPS_SpecificHumidity_IsbL-0650_RLatLon0.03_PT044H.grib2 2026-04-29 06:19 1.7M
20260429T00Z_MSC_CAPS_SpecificHumidity_IsbL-0700_RLatLon0.03_PT044H.grib2 2026-04-29 06:19 1.7M
20260429T00Z_MSC_CAPS_SpecificHumidity_IsbL-0750_RLatLon0.03_PT044H.grib2 2026-04-29 06:19 1.8M
20260429T00Z_MSC_CAPS_SpecificHumidity_IsbL-0800_RLatLon0.03_PT044H.grib2 2026-04-29 06:19 1.5M
20260429T00Z_MSC_CAPS_SpecificHumidity_IsbL-0850_RLatLon0.03_PT044H.grib2 2026-04-29 06:19 1.6M
20260429T00Z_MSC_CAPS_SpecificHumidity_IsbL-0875_RLatLon0.03_PT044H.grib2 2026-04-29 06:19 1.7M
20260429T00Z_MSC_CAPS_SpecificHumidity_IsbL-0900_RLatLon0.03_PT044H.grib2 2026-04-29 06:19 1.8M
20260429T00Z_MSC_CAPS_SpecificHumidity_IsbL-0925_RLatLon0.03_PT044H.grib2 2026-04-29 06:19 1.9M
20260429T00Z_MSC_CAPS_SpecificHumidity_IsbL-0950_RLatLon0.03_PT044H.grib2 2026-04-29 06:19 2.0M
20260429T00Z_MSC_CAPS_SpecificHumidity_IsbL-0970_RLatLon0.03_PT044H.grib2 2026-04-29 06:19 2.0M
20260429T00Z_MSC_CAPS_SpecificHumidity_IsbL-0985_RLatLon0.03_PT044H.grib2 2026-04-29 06:19 2.1M
20260429T00Z_MSC_CAPS_SpecificHumidity_IsbL-1000_RLatLon0.03_PT044H.grib2 2026-04-29 06:19 2.1M
20260429T00Z_MSC_CAPS_SpecificHumidity_IsbL-1015_RLatLon0.03_PT044H.grib2 2026-04-29 06:19 2.1M
20260429T00Z_MSC_CAPS_SpecificHumidity_Sfc_RLatLon0.03_PT044H.grib2 2026-04-29 06:19 2.0M
20260429T00Z_MSC_CAPS_StormRelativeHelicity_Sfc_RLatLon0.03_PT044H.grib2 2026-04-29 06:19 3.1M
20260429T00Z_MSC_CAPS_Thickness_IsbL-1000to0500_RLatLon0.03_PT044H.grib2 2026-04-29 06:19 462K
20260429T00Z_MSC_CAPS_TotalCloudCover_Sfc_RLatLon0.03_PT044H.grib2 2026-04-29 06:19 3.7M
20260429T00Z_MSC_CAPS_TurboclineDepth_Sfc_RLatLon0.03_PT044H.nc 2026-04-29 06:12 16M
20260429T00Z_MSC_CAPS_UpwardLongwaveRadiationFlux_NTAtm_RLatLon0.03_PT044H.grib2 2026-04-29 06:19 2.9M
20260429T00Z_MSC_CAPS_UpwardShortwaveRadiationFlux_NTAtm_RLatLon0.03_PT044H.grib2 2026-04-29 06:19 2.5M
20260429T00Z_MSC_CAPS_VerticalVelocity_IsbL-0250_RLatLon0.03_PT044H.grib2 2026-04-29 06:19 868K
20260429T00Z_MSC_CAPS_VerticalVelocity_IsbL-0500_RLatLon0.03_PT044H.grib2 2026-04-29 06:19 1.1M
20260429T00Z_MSC_CAPS_VerticalVelocity_IsbL-0700_RLatLon0.03_PT044H.grib2 2026-04-29 06:19 1.2M
20260429T00Z_MSC_CAPS_VerticalVelocity_IsbL-0850_RLatLon0.03_PT044H.grib2 2026-04-29 06:19 1.0M
20260429T00Z_MSC_CAPS_VerticalVelocity_IsbL-1000_RLatLon0.03_PT044H.grib2 2026-04-29 06:19 1.0M
20260429T00Z_MSC_CAPS_WindDir_AGL-10m_RLatLon0.03_PT044H.grib2 2026-04-29 06:19 2.5M
20260429T00Z_MSC_CAPS_WindDir_AGL-120m_RLatLon0.03_PT044H.grib2 2026-04-29 06:19 1.3M
20260429T00Z_MSC_CAPS_WindDir_AGL-40m_RLatLon0.03_PT044H.grib2 2026-04-29 06:19 1.4M
20260429T00Z_MSC_CAPS_WindDir_AGL-80m_RLatLon0.03_PT044H.grib2 2026-04-29 06:19 1.4M
20260429T00Z_MSC_CAPS_WindDir_IsbL-0050_RLatLon0.03_PT044H.grib2 2026-04-29 06:19 940K
20260429T00Z_MSC_CAPS_WindDir_IsbL-0100_RLatLon0.03_PT044H.grib2 2026-04-29 06:19 1.0M
20260429T00Z_MSC_CAPS_WindDir_IsbL-0150_RLatLon0.03_PT044H.grib2 2026-04-29 06:19 1.0M
20260429T00Z_MSC_CAPS_WindDir_IsbL-0175_RLatLon0.03_PT044H.grib2 2026-04-29 06:19 1.0M
20260429T00Z_MSC_CAPS_WindDir_IsbL-0200_RLatLon0.03_PT044H.grib2 2026-04-29 06:19 1.0M
20260429T00Z_MSC_CAPS_WindDir_IsbL-0225_RLatLon0.03_PT044H.grib2 2026-04-29 06:19 1.1M
20260429T00Z_MSC_CAPS_WindDir_IsbL-0250_RLatLon0.03_PT044H.grib2 2026-04-29 06:19 1.1M
20260429T00Z_MSC_CAPS_WindDir_IsbL-0275_RLatLon0.03_PT044H.grib2 2026-04-29 06:19 1.1M
20260429T00Z_MSC_CAPS_WindDir_IsbL-0300_RLatLon0.03_PT044H.grib2 2026-04-29 06:19 1.1M
20260429T00Z_MSC_CAPS_WindDir_IsbL-0350_RLatLon0.03_PT044H.grib2 2026-04-29 06:19 1.1M
20260429T00Z_MSC_CAPS_WindDir_IsbL-0400_RLatLon0.03_PT044H.grib2 2026-04-29 06:19 1.1M
20260429T00Z_MSC_CAPS_WindDir_IsbL-0450_RLatLon0.03_PT044H.grib2 2026-04-29 06:19 1.2M
20260429T00Z_MSC_CAPS_WindDir_IsbL-0500_RLatLon0.03_PT044H.grib2 2026-04-29 06:19 1.1M
20260429T00Z_MSC_CAPS_WindDir_IsbL-0550_RLatLon0.03_PT044H.grib2 2026-04-29 06:19 1.2M
20260429T00Z_MSC_CAPS_WindDir_IsbL-0600_RLatLon0.03_PT044H.grib2 2026-04-29 06:19 1.3M
20260429T00Z_MSC_CAPS_WindDir_IsbL-0650_RLatLon0.03_PT044H.grib2 2026-04-29 06:19 1.3M
20260429T00Z_MSC_CAPS_WindDir_IsbL-0700_RLatLon0.03_PT044H.grib2 2026-04-29 06:19 1.4M
20260429T00Z_MSC_CAPS_WindDir_IsbL-0750_RLatLon0.03_PT044H.grib2 2026-04-29 06:19 1.5M
20260429T00Z_MSC_CAPS_WindDir_IsbL-0800_RLatLon0.03_PT044H.grib2 2026-04-29 06:19 1.6M
20260429T00Z_MSC_CAPS_WindDir_IsbL-0850_RLatLon0.03_PT044H.grib2 2026-04-29 06:19 1.8M
20260429T00Z_MSC_CAPS_WindDir_IsbL-0875_RLatLon0.03_PT044H.grib2 2026-04-29 06:19 1.9M
20260429T00Z_MSC_CAPS_WindDir_IsbL-0900_RLatLon0.03_PT044H.grib2 2026-04-29 06:19 1.9M
20260429T00Z_MSC_CAPS_WindDir_IsbL-0925_RLatLon0.03_PT044H.grib2 2026-04-29 06:19 2.0M
20260429T00Z_MSC_CAPS_WindDir_IsbL-0950_RLatLon0.03_PT044H.grib2 2026-04-29 06:19 2.1M
20260429T00Z_MSC_CAPS_WindDir_IsbL-0970_RLatLon0.03_PT044H.grib2 2026-04-29 06:19 2.2M
20260429T00Z_MSC_CAPS_WindDir_IsbL-0985_RLatLon0.03_PT044H.grib2 2026-04-29 06:19 2.3M
20260429T00Z_MSC_CAPS_WindDir_IsbL-1000_RLatLon0.03_PT044H.grib2 2026-04-29 06:19 2.3M
20260429T00Z_MSC_CAPS_WindDir_IsbL-1015_RLatLon0.03_PT044H.grib2 2026-04-29 06:19 2.4M
20260429T00Z_MSC_CAPS_WindGust-Max_AGL-10m_RLatLon0.03_PT044H.grib2 2026-04-29 06:19 2.5M
20260429T00Z_MSC_CAPS_WindGust-Min_AGL-10m_RLatLon0.03_PT044H.grib2 2026-04-29 06:19 2.4M
20260429T00Z_MSC_CAPS_WindGust_AGL-10m_RLatLon0.03_PT044H.grib2 2026-04-29 06:19 2.5M
20260429T00Z_MSC_CAPS_WindSpeed_AGL-10m_RLatLon0.03_PT044H.grib2 2026-04-29 06:19 2.0M
20260429T00Z_MSC_CAPS_WindSpeed_AGL-120m_RLatLon0.03_PT044H.grib2 2026-04-29 06:19 1.2M
20260429T00Z_MSC_CAPS_WindSpeed_AGL-40m_RLatLon0.03_PT044H.grib2 2026-04-29 06:19 1.2M
20260429T00Z_MSC_CAPS_WindSpeed_AGL-80m_RLatLon0.03_PT044H.grib2 2026-04-29 06:19 1.2M
20260429T00Z_MSC_CAPS_WindSpeed_IsbL-0050_RLatLon0.03_PT044H.grib2 2026-04-29 06:19 835K
20260429T00Z_MSC_CAPS_WindSpeed_IsbL-0100_RLatLon0.03_PT044H.grib2 2026-04-29 06:19 876K
20260429T00Z_MSC_CAPS_WindSpeed_IsbL-0150_RLatLon0.03_PT044H.grib2 2026-04-29 06:19 1.0M
20260429T00Z_MSC_CAPS_WindSpeed_IsbL-0175_RLatLon0.03_PT044H.grib2 2026-04-29 06:19 1.1M
20260429T00Z_MSC_CAPS_WindSpeed_IsbL-0200_RLatLon0.03_PT044H.grib2 2026-04-29 06:19 1.1M
20260429T00Z_MSC_CAPS_WindSpeed_IsbL-0225_RLatLon0.03_PT044H.grib2 2026-04-29 06:19 1.2M
20260429T00Z_MSC_CAPS_WindSpeed_IsbL-0250_RLatLon0.03_PT044H.grib2 2026-04-29 06:19 954K
20260429T00Z_MSC_CAPS_WindSpeed_IsbL-0275_RLatLon0.03_PT044H.grib2 2026-04-29 06:19 961K
20260429T00Z_MSC_CAPS_WindSpeed_IsbL-0300_RLatLon0.03_PT044H.grib2 2026-04-29 06:19 971K
20260429T00Z_MSC_CAPS_WindSpeed_IsbL-0350_RLatLon0.03_PT044H.grib2 2026-04-29 06:19 1.0M
20260429T00Z_MSC_CAPS_WindSpeed_IsbL-0400_RLatLon0.03_PT044H.grib2 2026-04-29 06:19 1.0M
20260429T00Z_MSC_CAPS_WindSpeed_IsbL-0450_RLatLon0.03_PT044H.grib2 2026-04-29 06:19 1.3M
20260429T00Z_MSC_CAPS_WindSpeed_IsbL-0500_RLatLon0.03_PT044H.grib2 2026-04-29 06:19 1.2M
20260429T00Z_MSC_CAPS_WindSpeed_IsbL-0550_RLatLon0.03_PT044H.grib2 2026-04-29 06:19 1.4M
20260429T00Z_MSC_CAPS_WindSpeed_IsbL-0600_RLatLon0.03_PT044H.grib2 2026-04-29 06:19 1.4M
20260429T00Z_MSC_CAPS_WindSpeed_IsbL-0650_RLatLon0.03_PT044H.grib2 2026-04-29 06:19 1.4M
20260429T00Z_MSC_CAPS_WindSpeed_IsbL-0700_RLatLon0.03_PT044H.grib2 2026-04-29 06:19 1.4M
20260429T00Z_MSC_CAPS_WindSpeed_IsbL-0750_RLatLon0.03_PT044H.grib2 2026-04-29 06:19 1.5M
20260429T00Z_MSC_CAPS_WindSpeed_IsbL-0800_RLatLon0.03_PT044H.grib2 2026-04-29 06:19 1.5M
20260429T00Z_MSC_CAPS_WindSpeed_IsbL-0850_RLatLon0.03_PT044H.grib2 2026-04-29 06:19 1.7M
20260429T00Z_MSC_CAPS_WindSpeed_IsbL-0875_RLatLon0.03_PT044H.grib2 2026-04-29 06:19 1.7M
20260429T00Z_MSC_CAPS_WindSpeed_IsbL-0900_RLatLon0.03_PT044H.grib2 2026-04-29 06:19 1.8M
20260429T00Z_MSC_CAPS_WindSpeed_IsbL-0925_RLatLon0.03_PT044H.grib2 2026-04-29 06:19 1.8M
20260429T00Z_MSC_CAPS_WindSpeed_IsbL-0950_RLatLon0.03_PT044H.grib2 2026-04-29 06:19 1.9M
20260429T00Z_MSC_CAPS_WindSpeed_IsbL-0970_RLatLon0.03_PT044H.grib2 2026-04-29 06:19 1.9M
20260429T00Z_MSC_CAPS_WindSpeed_IsbL-0985_RLatLon0.03_PT044H.grib2 2026-04-29 06:19 1.9M
20260429T00Z_MSC_CAPS_WindSpeed_IsbL-1000_RLatLon0.03_PT044H.grib2 2026-04-29 06:19 2.0M
20260429T00Z_MSC_CAPS_WindSpeed_IsbL-1015_RLatLon0.03_PT044H.grib2 2026-04-29 06:19 2.0M
20260429T00Z_MSC_CAPS_WindU_AGL-10m_RLatLon0.03_PT044H.grib2 2026-04-29 06:19 2.0M
20260429T00Z_MSC_CAPS_WindU_AGL-120m_RLatLon0.03_PT044H.grib2 2026-04-29 06:19 1.1M
20260429T00Z_MSC_CAPS_WindU_AGL-40m_RLatLon0.03_PT044H.grib2 2026-04-29 06:19 1.2M
20260429T00Z_MSC_CAPS_WindU_AGL-80m_RLatLon0.03_PT044H.grib2 2026-04-29 06:19 1.1M
20260429T00Z_MSC_CAPS_WindU_IsbL-0050_RLatLon0.03_PT044H.grib2 2026-04-29 06:19 752K
20260429T00Z_MSC_CAPS_WindU_IsbL-0100_RLatLon0.03_PT044H.grib2 2026-04-29 06:19 791K
20260429T00Z_MSC_CAPS_WindU_IsbL-0150_RLatLon0.03_PT044H.grib2 2026-04-29 06:19 1.0M
20260429T00Z_MSC_CAPS_WindU_IsbL-0175_RLatLon0.03_PT044H.grib2 2026-04-29 06:19 934K
20260429T00Z_MSC_CAPS_WindU_IsbL-0200_RLatLon0.03_PT044H.grib2 2026-04-29 06:19 732K
20260429T00Z_MSC_CAPS_WindU_IsbL-0225_RLatLon0.03_PT044H.grib2 2026-04-29 06:19 880K
20260429T00Z_MSC_CAPS_WindU_IsbL-0250_RLatLon0.03_PT044H.grib2 2026-04-29 06:19 900K
20260429T00Z_MSC_CAPS_WindU_IsbL-0275_RLatLon0.03_PT044H.grib2 2026-04-29 06:19 906K
20260429T00Z_MSC_CAPS_WindU_IsbL-0300_RLatLon0.03_PT044H.grib2 2026-04-29 06:19 914K
20260429T00Z_MSC_CAPS_WindU_IsbL-0350_RLatLon0.03_PT044H.grib2 2026-04-29 06:19 924K
20260429T00Z_MSC_CAPS_WindU_IsbL-0400_RLatLon0.03_PT044H.grib2 2026-04-29 06:19 929K
20260429T00Z_MSC_CAPS_WindU_IsbL-0450_RLatLon0.03_PT044H.grib2 2026-04-29 06:19 948K
20260429T00Z_MSC_CAPS_WindU_IsbL-0500_RLatLon0.03_PT044H.grib2 2026-04-29 06:19 863K
20260429T00Z_MSC_CAPS_WindU_IsbL-0550_RLatLon0.03_PT044H.grib2 2026-04-29 06:19 901K
20260429T00Z_MSC_CAPS_WindU_IsbL-0600_RLatLon0.03_PT044H.grib2 2026-04-29 06:19 930K
20260429T00Z_MSC_CAPS_WindU_IsbL-0650_RLatLon0.03_PT044H.grib2 2026-04-29 06:19 1.2M
20260429T00Z_MSC_CAPS_WindU_IsbL-0700_RLatLon0.03_PT044H.grib2 2026-04-29 06:19 1.3M
20260429T00Z_MSC_CAPS_WindU_IsbL-0750_RLatLon0.03_PT044H.grib2 2026-04-29 06:19 1.3M
20260429T00Z_MSC_CAPS_WindU_IsbL-0800_RLatLon0.03_PT044H.grib2 2026-04-29 06:19 1.4M
20260429T00Z_MSC_CAPS_WindU_IsbL-0850_RLatLon0.03_PT044H.grib2 2026-04-29 06:19 1.1M
20260429T00Z_MSC_CAPS_WindU_IsbL-0875_RLatLon0.03_PT044H.grib2 2026-04-29 06:19 1.2M
20260429T00Z_MSC_CAPS_WindU_IsbL-0900_RLatLon0.03_PT044H.grib2 2026-04-29 06:19 1.2M
20260429T00Z_MSC_CAPS_WindU_IsbL-0925_RLatLon0.03_PT044H.grib2 2026-04-29 06:19 1.3M
20260429T00Z_MSC_CAPS_WindU_IsbL-0950_RLatLon0.03_PT044H.grib2 2026-04-29 06:19 1.3M
20260429T00Z_MSC_CAPS_WindU_IsbL-0970_RLatLon0.03_PT044H.grib2 2026-04-29 06:19 1.7M
20260429T00Z_MSC_CAPS_WindU_IsbL-0985_RLatLon0.03_PT044H.grib2 2026-04-29 06:19 1.7M
20260429T00Z_MSC_CAPS_WindU_IsbL-1000_RLatLon0.03_PT044H.grib2 2026-04-29 06:19 1.8M
20260429T00Z_MSC_CAPS_WindU_IsbL-1015_RLatLon0.03_PT044H.grib2 2026-04-29 06:19 1.9M
20260429T00Z_MSC_CAPS_WindV_AGL-10m_RLatLon0.03_PT044H.grib2 2026-04-29 06:19 2.0M
20260429T00Z_MSC_CAPS_WindV_AGL-120m_RLatLon0.03_PT044H.grib2 2026-04-29 06:19 1.1M
20260429T00Z_MSC_CAPS_WindV_AGL-40m_RLatLon0.03_PT044H.grib2 2026-04-29 06:19 1.2M
20260429T00Z_MSC_CAPS_WindV_AGL-80m_RLatLon0.03_PT044H.grib2 2026-04-29 06:19 1.1M
20260429T00Z_MSC_CAPS_WindV_IsbL-0050_RLatLon0.03_PT044H.grib2 2026-04-29 06:19 752K
20260429T00Z_MSC_CAPS_WindV_IsbL-0100_RLatLon0.03_PT044H.grib2 2026-04-29 06:19 783K
20260429T00Z_MSC_CAPS_WindV_IsbL-0150_RLatLon0.03_PT044H.grib2 2026-04-29 06:19 906K
20260429T00Z_MSC_CAPS_WindV_IsbL-0175_RLatLon0.03_PT044H.grib2 2026-04-29 06:19 711K
20260429T00Z_MSC_CAPS_WindV_IsbL-0200_RLatLon0.03_PT044H.grib2 2026-04-29 06:19 725K
20260429T00Z_MSC_CAPS_WindV_IsbL-0225_RLatLon0.03_PT044H.grib2 2026-04-29 06:19 870K
20260429T00Z_MSC_CAPS_WindV_IsbL-0250_RLatLon0.03_PT044H.grib2 2026-04-29 06:19 893K
20260429T00Z_MSC_CAPS_WindV_IsbL-0275_RLatLon0.03_PT044H.grib2 2026-04-29 06:19 902K
20260429T00Z_MSC_CAPS_WindV_IsbL-0300_RLatLon0.03_PT044H.grib2 2026-04-29 06:19 910K
20260429T00Z_MSC_CAPS_WindV_IsbL-0350_RLatLon0.03_PT044H.grib2 2026-04-29 06:19 924K
20260429T00Z_MSC_CAPS_WindV_IsbL-0400_RLatLon0.03_PT044H.grib2 2026-04-29 06:19 929K
20260429T00Z_MSC_CAPS_WindV_IsbL-0450_RLatLon0.03_PT044H.grib2 2026-04-29 06:19 949K
20260429T00Z_MSC_CAPS_WindV_IsbL-0500_RLatLon0.03_PT044H.grib2 2026-04-29 06:19 860K
20260429T00Z_MSC_CAPS_WindV_IsbL-0550_RLatLon0.03_PT044H.grib2 2026-04-29 06:19 892K
20260429T00Z_MSC_CAPS_WindV_IsbL-0600_RLatLon0.03_PT044H.grib2 2026-04-29 06:19 1.2M
20260429T00Z_MSC_CAPS_WindV_IsbL-0650_RLatLon0.03_PT044H.grib2 2026-04-29 06:19 1.2M
20260429T00Z_MSC_CAPS_WindV_IsbL-0700_RLatLon0.03_PT044H.grib2 2026-04-29 06:19 1.3M
20260429T00Z_MSC_CAPS_WindV_IsbL-0750_RLatLon0.03_PT044H.grib2 2026-04-29 06:19 1.3M
20260429T00Z_MSC_CAPS_WindV_IsbL-0800_RLatLon0.03_PT044H.grib2 2026-04-29 06:19 1.4M
20260429T00Z_MSC_CAPS_WindV_IsbL-0850_RLatLon0.03_PT044H.grib2 2026-04-29 06:19 1.5M
20260429T00Z_MSC_CAPS_WindV_IsbL-0875_RLatLon0.03_PT044H.grib2 2026-04-29 06:19 1.5M
20260429T00Z_MSC_CAPS_WindV_IsbL-0900_RLatLon0.03_PT044H.grib2 2026-04-29 06:19 1.5M
20260429T00Z_MSC_CAPS_WindV_IsbL-0925_RLatLon0.03_PT044H.grib2 2026-04-29 06:19 1.6M
20260429T00Z_MSC_CAPS_WindV_IsbL-0950_RLatLon0.03_PT044H.grib2 2026-04-29 06:19 1.6M
20260429T00Z_MSC_CAPS_WindV_IsbL-0970_RLatLon0.03_PT044H.grib2 2026-04-29 06:19 1.7M
20260429T00Z_MSC_CAPS_WindV_IsbL-0985_RLatLon0.03_PT044H.grib2 2026-04-29 06:19 1.9M
20260429T00Z_MSC_CAPS_WindV_IsbL-1000_RLatLon0.03_PT044H.grib2 2026-04-29 06:19 1.9M
20260429T00Z_MSC_CAPS_WindV_IsbL-1015_RLatLon0.03_PT044H.grib2 2026-04-29 06:19 1.9M